Regional Weather Roundup
Issued by NWS Newport/Morehead, NC

Current Version | Previous Version | Text Only | Print | Product List | Glossary On
Versions: 1 2 3 4 5 6 7 8 9 10 11 12 13 14 15 16 17 18 19 20 21 22 23 24 25 26 27 28 29 30 31 32 33 34 35 36 37 38 39 40 41 42 43 44 45 46 47 48 49 50
000
ASUS42 KMHX 231213
RWRMHX
WEATHER ROUNDUP FOR EASTERN NORTH CAROLINA
NATIONAL WEATHER SERVICE NEWPORT/MOREHEAD CITY NC
700 AM EST TUE JAN 23 2018

NOTE: "FAIR" INDICATES FEW OR NO CLOUDS BELOW 12,000 FEET
WITH NO SIGNIFICANT WEATHER AND/OR OBSTRUCTIONS TO VISIBILITY

NCZ015>017-031-032-045>047-102-103-231300-
NORTH COAST

CITY           SKY/WX    TMP DP  RH WIND       PRES   REMARKS
EDENTON        MOCLDY    59  56  91 S12       29.86F
ELIZABETH CITY FAIR      63  63 100 S13       29.85F
KITTY HAWK     FAIR     N/A N/A N/A S9G20     29.88F
MANTEO         FAIR      55  54  97 S18       29.90F

$$

NCZ045>047-081-094-103-104-231300-
CENTRAL COAST

CITY           SKY/WX    TMP DP  RH WIND       PRES   REMARKS
FRISCO         NOT AVBL

$$

NCZ095-097-098-100-101-231300-
SOUTHERN COAST

CITY           SKY/WX    TMP DP  RH WIND       PRES   REMARKS
BEAUFORT       MOCLDY    61  59  93 S16       29.91F
CEDAR ISLAND   NOT AVBL
JACKSONVILLE   CLOUDY    66  64  93 S15G25    29.88F
PINEY ISLAND   NOT AVBL
WILMINGTON     CLOUDY    66  63  90 S14       29.89F


$$

NCZ011>013-027>030-043-044-078>080-089-090>093-098-231300-
COASTAL PLAIN

CITY           SKY/WX    TMP DP  RH WIND       PRES   REMARKS
AHOSKIE        CLOUDY    62  59  91 S14       29.81S
CLINTON        CLOUDY    65  65  97 S9G17     29.83F
ELIZABETHTOWN  NOT AVBL
GOLDSBORO      LGT RAIN  66  61  82 S16G22    29.80F
GREENVILLE     FAIR      64  61  88 S17G24    29.85F
HAVELOCK       NOT AVBL
KENANSVILLE    CLOUDY    64  61  88 S7        29.84F
KINSTON        CLOUDY    66  61  82 S17G26    29.84F
NEW BERN       FAIR      64  61  90 S16G23    29.89F
RICHLANDS      CLOUDY    66  62  87 S18G25    29.87F
ROCKY MOUNT    CLOUDY    66  61  84 S15G26    29.79F
WASHINGTON     CLOUDY    66  60  82 S9        29.86S
WHITEVILLE     RAIN      66  64  94 S18G30    29.87R

$$

AMZ130-135-150-152-154-156-158-170-250-252-270-ANZ085-086-088-633-658-670-231300-
MARINE OBSERVATIONS

STATION/POSITION TIME  TEMP    WIND        PRES    WAVE   SWELL
                       AIR SEA DIR/SP/G            HT/PER HT/PER
                 (UTC) (F)     (DEG/KT/KT) (MB)    (FT/S) (FT/S)
CHESAPEAKE LIGHT NOT AVBL
64 E VA BEACH    1150   63 58  190/ 19/ 21 1012.8    5/ 6   2/ 9
DUCK             1148   61 41  180/ 19/ 23 1011.0
2 E DUCK         1200      42                N/A     3/ 5
OREGON INLET     1136   54 43  170/ 12/ 14 1012.8
13E OREGON INLT  1148      41                N/A     6/ 7   5/ 7
HATTERAS CG      1148   66 54  190/  8/ 16 1013.1
DIAMOND BUOY     1200   71 70  180/ 27/ 33 1013.7
CAPE LOOKOUT     1200          180/ 18/ 19 1013.3
BEAUFORT LAB     1148   56 49  180/ 11/ 12 1012.8
30 SE NEW RVR IN 1108   65 58  190/ 12/ 16 1013.5
30 SE NEW RVR IN 1200      58                N/A     8/ 7
27 SE WRIGHTSVLE 1108   66 60  190/ 17/ 25 1013.7
5 SE WRIGHTSVLE  1108   53 47  190/  8/ 12 1012.8
225 S CAPE HAT   1150   70 70  170/ 16/ 19 1018.6    5/ 6   2/ 9
41 SE CHARLESTON 1200   68 69  240/ 21/ 29 1013.8

$$



USA.gov is the U.S. government's official web portal to all federal, state and local government web resources and services.